DW2447 Summerville SC US current weather conditions

sailwx.info

Last reported at 2019-May-14 14:47 UTC.
Time now 2019-Dec-10 00:08 UTC

Location: N 32°59' W 080°11'.
View on Google Maps.

See reports from other nearby stations

  
Tides and Currents Weather Stations Pressure Air Temp Water Temp Dewpoint Dewpoint Depression Visibility Wind Speed Wind Dir Waves Ship Positions
date/time (UTC)wind fromknots sea level pressurealtimeterstation pressurevisibilityair tempwater tempwave heightnotes
2019-Dec-09 23:02 195 0 gusting 2 18.3
2019-Dec-09 22:53 199 0 gusting 1 18.3
2019-Dec-09 22:44 206 18.9
2019-Dec-09 22:35 177 18.9
2019-Dec-09 22:26 178 0 gusting 1 18.9
2019-Dec-09 22:17 178 0 gusting 2 19.4
2019-Dec-09 22:08 203 1 gusting 3 19.4
2019-Dec-09 21:59 176 20.0
2019-Dec-09 21:50 187 1 gusting 5 20.0
2019-Dec-09 21:41 197 0 gusting 3 20.6
2019-Dec-09 21:32 179 1 gusting 3 20.6
2019-Dec-09 21:23 197 0 gusting 5 21.1
2019-Dec-09 21:14 182 1 gusting 6 21.1
2019-Dec-09 21:05 181 1 gusting 3 21.1
2019-Dec-09 20:56 200 1 gusting 6 21.1
2019-Dec-09 20:47 176 2 gusting 6 21.7
2019-Dec-09 20:38 192 1 gusting 4 21.7
2019-Dec-09 20:29 183 2 gusting 5 22.2
2019-Dec-09 20:20 173 0 gusting 4 22.2
2019-Dec-09 20:11 186 1 gusting 6 22.2
2019-Dec-09 20:02 178 1 gusting 6 22.2
2019-Dec-09 19:53 202 3 gusting 6 22.2
2019-Dec-09 19:44 211 1 gusting 6 22.2
2019-Dec-09 19:35 184 1 gusting 5 22.2
2019-Dec-09 19:26 186 3 gusting 5 22.2
2019-Dec-09 19:17 164 1 gusting 3 22.2
2019-Dec-09 19:08 183 1 gusting 6 21.7
2019-Dec-09 18:59 187 1 gusting 6 21.7
2019-Dec-09 18:50 199 1 gusting 4 22.2
2019-Dec-09 18:41 187 2 gusting 6 21.7
2019-Dec-09 18:32 199 0 gusting 5 22.2
2019-Dec-09 18:23 192 1 gusting 4 21.7
2019-Dec-09 18:14 249 0 gusting 3 21.1
2019-Dec-09 18:05 343 1 gusting 3 20.6
2019-Dec-09 17:56 197 2 gusting 3 20.6
2019-Dec-09 17:48 176 1 gusting 3 20.0
2019-Dec-09 17:29 174 2 gusting 4 18.9
2019-Dec-09 17:20 172 2 gusting 5 17.8
2019-Dec-09 17:11 166 3 gusting 5 17.2
2019-Dec-09 17:02 152 2 gusting 4 17.2
2019-Dec-09 16:53 188 1 gusting 4 16.7
2019-Dec-09 16:44 179 1 gusting 3 16.7
2019-Dec-09 16:35 180 1 gusting 4 16.1
2019-Dec-09 16:26 159 1 gusting 3 16.1
2019-Dec-09 16:17 178 1 gusting 3 16.1
2019-Dec-09 16:08 156 1 gusting 3 15.6
2019-Dec-09 15:59 189 2 gusting 3 15.0
2019-Dec-09 15:50 172 14.4
2019-Dec-09 15:41 184 1 gusting 3 14.4
2019-Dec-09 15:32 160 0 gusting 3 13.9
2019-Dec-09 15:23 168 1 gusting 3 13.3
2019-Dec-09 15:14 173 1 gusting 3 12.8
2019-Dec-09 15:05 175 0 gusting 3 12.2
2019-Dec-09 14:56 169 2 gusting 5 11.7
2019-Dec-09 14:47 164 1 gusting 3 11.7
2019-Dec-09 14:38 141 11.7
2019-Dec-09 14:29 127 11.1
2019-Dec-09 14:20 122 11.1
2019-Dec-09 14:11 126 0 gusting 1 11.1
2019-Dec-09 14:02 048 10.6
2019-Dec-09 13:53 030 10.6
2019-Dec-09 13:44 094 10.0
2019-Dec-09 13:35 150 10.0
2019-Dec-09 13:26 145 0 gusting 1 10.0
2019-Dec-09 13:17 126 0 gusting 1 10.0
2019-Dec-09 13:08 011 10.0
2019-Dec-09 12:59 058 10.0
2019-Dec-09 12:50 354 10.0
2019-Dec-09 12:41 343 10.0
2019-Dec-09 12:32 357 0 gusting 1 10.0
2019-Dec-09 12:23 001 10.0
2019-Dec-09 12:14 320 10.0
2019-Dec-09 12:05 123 9.4
2019-Dec-09 11:56 122 9.4
2019-Dec-09 11:47 122 9.4
2019-Dec-09 11:38 160 9.4
2019-Dec-09 11:29 163 9.4
2019-Dec-09 11:20 165 1 gusting 1 9.4
2019-Dec-09 11:11 128 0 gusting 2 9.4
2019-Dec-09 11:02 177 0 gusting 1 9.4
2019-Dec-09 10:53 154 9.4
2019-Dec-09 10:44 162 0 gusting 1 10.0
2019-Dec-09 10:35 148 0 gusting 1 9.4
2019-Dec-09 10:26 152 9.4
2019-Dec-09 10:17 142 0 gusting 1 9.4
2019-Dec-09 10:08 161 9.4
2019-Dec-09 09:59 170 0 gusting 1 9.4
2019-Dec-09 09:50 162 1 gusting 1 9.4
2019-Dec-09 09:41 176 9.4
2019-Dec-09 09:32 161 9.4
2019-Dec-09 09:23 152 1 gusting 2 10.0
2019-Dec-09 09:14 146 0 gusting 2 9.4
2019-Dec-09 09:05 155 1 gusting 2 9.4
2019-Dec-09 08:56 163 0 gusting 3 10.0
2019-Dec-09 08:47 183 1 gusting 3 10.0
2019-Dec-09 08:38 166 2 gusting 3 10.0
2019-Dec-09 08:29 155 1 gusting 3 10.0
2019-Dec-09 08:20 160 1 gusting 3 10.0
2019-Dec-09 08:11 170 1 gusting 2 10.0
2019-Dec-09 08:02 169 0 gusting 3 10.0
2019-Dec-09 07:53 135 0 gusting 1 10.0
2019-Dec-09 07:44 152 10.0
2019-Dec-09 07:35 101 10.0
2019-Dec-09 07:26 104 0 gusting 2 10.0
2019-Dec-09 07:17 078 0 gusting 2 10.0
2019-Dec-09 07:08 087 1 gusting 1 10.0
2019-Dec-09 06:59 105 10.0
2019-Dec-09 06:50 064 10.0
2019-Dec-09 06:41 109 0 gusting 1 10.0
2019-Dec-09 06:32 123 0 gusting 2 10.0
2019-Dec-09 06:23 103 0 gusting 1 10.0
2019-Dec-09 06:14 090 0 gusting 1 10.0
2019-Dec-09 06:05 084 0 gusting 1 10.0
2019-Dec-09 05:56 090 0 gusting 2 10.0
2019-Dec-09 05:47 078 0 gusting 1 10.0
2019-Dec-09 05:38 085 10.0
2019-Dec-09 05:29 069 10.0
2019-Dec-09 05:20 359 10.0
2019-Dec-09 05:11 079 10.0
2019-Dec-09 05:02 099 0 gusting 1 10.6
2019-Dec-09 04:53 108 10.6
2019-Dec-09 04:44 067 10.6
2019-Dec-09 04:35 076 1 gusting 2 10.6
2019-Dec-09 04:26 069 0 gusting 3 10.6
2019-Dec-09 04:17 020 10.6
2019-Dec-09 04:08 076 0 gusting 1 10.6
2019-Dec-09 03:59 021 11.1
2019-Dec-09 03:50 059 11.1
2019-Dec-09 03:41 082 0 gusting 1 11.1
2019-Dec-09 03:32 013 0 gusting 1 11.1
2019-Dec-09 03:23 064 1 gusting 1 11.1
2019-Dec-09 03:14 065 0 gusting 1 11.1
2019-Dec-09 03:05 107 11.1
2019-Dec-09 02:56 073 11.1
2019-Dec-09 02:47 052 0 gusting 2 11.1
2019-Dec-09 02:29 128 11.1
2019-Dec-09 02:20 142 0 gusting 1 11.1
2019-Dec-09 02:11 091 0 gusting 2 11.1
2019-Dec-09 02:02 124 11.1
2019-Dec-09 01:53 084 11.1
2019-Dec-09 01:44 081 0 gusting 2 11.7
2019-Dec-09 01:35 098 1 gusting 1 11.7
2019-Dec-09 01:26 062 11.1
2019-Dec-09 01:17 055 0 gusting 2 11.1
2019-Dec-09 01:08 087 1 gusting 2 11.1
2019-Dec-09 00:59 067 11.1
2019-Dec-09 00:50 104 0 gusting 1 11.1
2019-Dec-09 00:41 079 0 gusting 3 11.1
2019-Dec-09 00:32 067 1 gusting 2 11.1
2019-Dec-09 00:23 360 0 gusting 1 10.6
2019-Dec-09 00:14 045 10.6
2019-Dec-09 00:05 11.1
2019-Dec-08 23:56 360 11.1
2019-Dec-08 23:47 060 11.7
2019-Dec-08 23:38 034 11.7
2019-Dec-08 23:29 084 12.2
2019-Dec-08 23:20 022 12.2
2019-Dec-08 23:11 015 12.2
2019-Dec-08 23:02 034 12.2
2019-Dec-08 22:53 029 12.2
2019-Dec-08 22:44 057 12.2
2019-Dec-08 22:35 315 12.2
2019-Dec-08 22:26 359 12.8
2019-Dec-08 22:17 360 13.3
2019-Dec-08 22:08 013 13.9
2019-Dec-08 21:59 001 0 gusting 1 13.9
2019-Dec-08 21:50 021 14.4
2019-Dec-08 21:41 035 14.4
2019-Dec-08 21:32 048 14.4
2019-Dec-08 21:23 028 14.4
2019-Dec-08 21:14 039 1 gusting 2 15.0
2019-Dec-08 21:05 044 0 gusting 2 15.0
2019-Dec-08 20:56 062 15.0
2019-Dec-08 20:47 069 15.0
2019-Dec-08 20:38 025 1 gusting 3 15.6
2019-Dec-08 20:29 005 0 gusting 3 15.6
2019-Dec-08 20:20 052 1 gusting 3 15.6
2019-Dec-08 20:11 360 1 gusting 3 16.1
2019-Dec-08 20:02 008 1 gusting 3 16.1
2019-Dec-08 19:53 072 2 gusting 3 16.1
2019-Dec-08 19:44 048 1 gusting 3 15.6
2019-Dec-08 19:35 057 2 gusting 4 15.0
2019-Dec-08 19:26 038 1 gusting 4 15.0
2019-Dec-08 19:17 036 1 gusting 4 15.0
2019-Dec-08 19:08 087 1 gusting 6 15.0
2019-Dec-08 18:59 077 1 gusting 6 15.0
2019-Dec-08 18:50 026 1 gusting 3 15.0
2019-Dec-08 18:41 073 1 gusting 4 14.4
2019-Dec-08 18:32 049 1 gusting 6 15.0
2019-Dec-08 18:23 037 2 gusting 5 14.4
2019-Dec-08 18:14 011 1 gusting 5 13.9
2019-Dec-08 18:05 360 3 gusting 6 13.9
2019-Dec-08 17:56 343 3 gusting 5 13.9
2019-Dec-08 17:47 049 3 gusting 6 13.3
2019-Dec-08 17:38 015 0 gusting 3 13.3
2019-Dec-08 17:29 097 12.8
2019-Dec-08 17:20 042 1 gusting 3 12.8
2019-Dec-08 17:11 003 2 gusting 4 12.2
2019-Dec-08 17:02 352 2 gusting 4 12.2
2019-Dec-08 16:53 357 2 gusting 4 12.2
2019-Dec-08 16:44 018 1 gusting 3 12.2
2019-Dec-08 16:35 035 1 gusting 3 12.2
2019-Dec-08 16:26 024 1 gusting 4 12.2
2019-Dec-08 16:17 081 1 gusting 4 12.2
2019-Dec-08 16:08 086 0 gusting 2 12.2
2019-Dec-08 15:59 067 12.2
2019-Dec-08 15:50 064 0 gusting 4 12.2
2019-Dec-08 15:41 070 1 gusting 5 11.7
2019-Dec-08 15:32 097 1 gusting 3 11.7
2019-Dec-08 15:23 080 1 gusting 3 11.7
2019-Dec-08 15:14 098 1 gusting 3 11.7
2019-Dec-08 15:05 049 12.2
2019-Dec-08 14:56 018 1 gusting 3 11.7
2019-Dec-08 14:47 036 1 gusting 4 11.1
2019-Dec-08 14:38 071 1 gusting 3 10.6
2019-Dec-08 14:29 083 1 gusting 3 10.6
2019-Dec-08 14:20 068 1 gusting 3 11.1
2019-Dec-08 14:11 074 1 gusting 3 10.6
2019-Dec-08 14:02 082 1 gusting 3 8.9
2019-Dec-08 13:53 069 1 gusting 2 8.3
2019-Dec-08 13:44 060 0 gusting 2 7.8
2019-Dec-08 13:35 058 1 gusting 3 6.7
2019-Dec-08 13:26 076 1 gusting 3 6.1
2019-Dec-08 13:17 078 1 gusting 3 6.1
2019-Dec-08 13:08 064 1 gusting 3 5.6
2019-Dec-08 12:59 031 1 gusting 3 4.4
2019-Dec-08 12:50 044 1 gusting 3 3.9
2019-Dec-08 12:41 062 0 gusting 3 3.9
2019-Dec-08 12:32 067 1 gusting 3 3.9
2019-Dec-08 12:23 067 0 gusting 3 3.9
2019-Dec-08 12:14 075 0 gusting 3 3.9
2019-Dec-08 12:05 086 0 gusting 1 4.4
2019-Dec-08 11:56 082 4.4
2019-Dec-08 11:47 077 1 gusting 4 4.4
2019-Dec-08 11:38 072 4.4
2019-Dec-08 11:29 069 0 gusting 3 4.4
2019-Dec-08 11:20 065 1 gusting 4 4.4
2019-Dec-08 11:11 059 0 gusting 1 4.4
2019-Dec-08 11:02 068 0 gusting 2 5.0
2019-Dec-08 10:53 064 0 gusting 3 5.0
2019-Dec-08 10:44 074 0 gusting 3 5.0
2019-Dec-08 10:35 066 0 gusting 3 5.0
2019-Dec-08 10:26 072 1 gusting 3 5.0
2019-Dec-08 10:17 065 5.0
2019-Dec-08 10:08 067 0 gusting 2 5.6
2019-Dec-08 09:59 074 1 gusting 2 5.6
2019-Dec-08 09:50 078 0 gusting 1 5.6
2019-Dec-08 09:41 068 5.6
2019-Dec-08 09:32 078 0 gusting 3 6.1
2019-Dec-08 09:23 070 1 gusting 3 6.1
2019-Dec-08 09:14 058 1 gusting 3 6.1
2019-Dec-08 09:05 075 1 gusting 3 6.1
2019-Dec-08 08:56 055 1 gusting 2 6.1
2019-Dec-08 08:47 065 0 gusting 3 6.1
2019-Dec-08 08:38 085 1 gusting 3 6.7
2019-Dec-08 08:29 070 0 gusting 3 6.7
2019-Dec-08 08:20 069 1 gusting 4 6.7
2019-Dec-08 08:11 056 1 gusting 3 6.7
2019-Dec-08 08:02 061 1 gusting 3 6.7
2019-Dec-08 07:53 064 0 gusting 2 6.7
2019-Dec-08 07:44 070 0 gusting 3 7.2
2019-Dec-08 07:35 075 0 gusting 4 7.2
2019-Dec-08 07:26 081 1 gusting 3 7.2
2019-Dec-08 07:17 058 0 gusting 3 7.2
2019-Dec-08 07:08 066 1 gusting 3 7.2
2019-Dec-08 06:59 076 1 gusting 3 7.8
2019-Dec-08 06:50 086 1 gusting 3 7.8
2019-Dec-08 06:41 076 0 gusting 4 7.8
2019-Dec-08 06:32 057 1 gusting 3 7.8
2019-Dec-08 06:23 072 1 gusting 3 7.8
2019-Dec-08 06:14 082 1 gusting 4 7.8
2019-Dec-08 06:05 085 1 gusting 5 8.3
2019-Dec-08 05:56 070 1 gusting 4 8.3
2019-Dec-08 05:47 075 1 gusting 5 8.3
2019-Dec-08 05:38 090 3 gusting 5 8.3
2019-Dec-08 05:29 074 2 gusting 3 8.3
2019-Dec-08 05:20 082 1 gusting 3 8.3
2019-Dec-08 05:11 092 1 gusting 4 8.3
2019-Dec-08 05:02 083 1 gusting 5 8.3
2019-Dec-08 04:53 087 3 gusting 4 8.9
2019-Dec-08 04:44 071 2 gusting 3 8.9
2019-Dec-08 04:35 068 1 gusting 3 8.9
2019-Dec-08 04:26 077 1 gusting 3 9.4
2019-Dec-08 04:17 084 1 gusting 3 9.4
2019-Dec-08 04:08 048 0 gusting 3 9.4
2019-Dec-08 03:59 074 1 gusting 4 10.0
2019-Dec-08 03:50 089 1 gusting 6 10.0
2019-Dec-08 03:41 085 1 gusting 3 10.0
2019-Dec-08 03:32 071 1 gusting 4 10.0
2019-Dec-08 03:23 076 1 gusting 2 10.0
2019-Dec-08 03:14 085 0 gusting 3 10.0
2019-Dec-08 03:05 080 1 gusting 3 10.0
2019-Dec-08 02:56 093 0 gusting 3 10.6
2019-Dec-08 02:47 071 1 gusting 2 10.6
2019-Dec-08 02:38 082 1 gusting 2 10.6
2019-Dec-08 02:29 078 0 gusting 1 10.6
2019-Dec-08 02:20 085 10.6
2019-Dec-08 02:11 085 0 gusting 1 10.6
2019-Dec-08 02:02 086 1 gusting 1 10.6
2019-Dec-08 01:53 078 10.6
2019-Dec-08 01:44 069 0 gusting 1 10.6
2019-Dec-08 01:35 083 0 gusting 1 10.6
2019-Dec-08 01:26 062 10.6
2019-Dec-08 01:17 082 10.6
2019-Dec-08 01:08 090 10.6
2019-Dec-08 00:59 092 10.6
2019-Dec-08 00:50 090 0 gusting 1 10.6
2019-Dec-08 00:41 180 10.0
2019-Dec-08 00:32 180 10.0
2019-Dec-08 00:23 10.6
2019-Dec-08 00:14 180 10.6
2019-Dec-08 00:05 045 11.1